Location: Poughquag
(41.6090°N, 73.6820°W)
Time: 06:59:28
(UTC-04:00)

Transit 2A - All Passes

Search period start: 29 May 2020 00:00
Search period end: 08 June 2020 00:00
Orbit: 593 x 965 km, 66.7° (Epoch: 28 May)

Date Brightness Start Highest point End Pass type
(mag) Time Alt. Az. Time Alt. Az. Time Alt. Az.
29 May - 01:11:30 10° WNW 01:15:44 19° WSW 01:20:00 10° SSW visible
29 May - 14:07:12 10° SSW 14:11:55 58° ESE 14:17:13 10° NE daylight
29 May - 15:51:38 10° W 15:55:37 23° NW 15:59:57 10° N daylight
29 May - 21:11:08 10° N 21:14:19 14° NE 21:17:34 10° ENE visible
29 May - 22:52:45 10° NNW 22:58:53 57° NE 23:05:09 10° SE visible
30 May - 00:36:40 10° NW 00:41:49 27° WSW 00:47:00 10° SSW visible
30 May - 13:33:28 10° S 13:37:55 39° ESE 13:42:52 10° NE daylight
30 May - 15:16:48 10° WSW 15:21:13 30° NW 15:26:05 10° NNE daylight
30 May - 20:37:57 10° NNE 20:39:43 11° NNE 20:41:30 10° NE daylight
30 May - 22:18:44 10° NNW 22:24:37 42° NE 22:30:38 10° ESE visible
31 May - 00:02:07 10° NW 00:07:50 38° WSW 00:13:38 10° S visible
31 May - 13:00:01 10° SSE 13:03:59 26° ESE 13:08:18 10° NE daylight
31 May - 14:42:10 10° WSW 14:46:52 42° NW 14:52:07 10° NNE daylight
31 May - 21:44:46 10° NNW 21:50:17 32° NE 21:55:55 10° ESE visible
31 May - 23:27:44 10° NW 23:33:49 53° WSW 23:39:58 10° S visible
01 Jun - 12:26:58 10° SE 12:30:07 17° ESE 12:33:27 10° ENE daylight
01 Jun - 14:07:45 10° SW 14:12:37 60° NW 14:18:04 10° NNE daylight
01 Jun - 15:54:48 10° WNW 15:57:10 13° NNW 15:59:37 10° N daylight
01 Jun - 21:10:53 10° N 21:15:53 25° NE 21:21:00 10° E visible
01 Jun - 22:53:28 10° NNW 22:59:44 74° WSW 23:06:04 10° SSE visible
02 Jun - 00:39:56 10° W 00:42:00 12° W 00:44:05 10° WSW visible
02 Jun - 11:55:01 10° ESE 11:56:17 11° E 11:57:35 10° E daylight
02 Jun - 13:33:31 10° SSW 13:38:25 87° WNW 13:43:57 10° NNE daylight
02 Jun - 15:19:17 10° WNW 15:22:36 17° NW 15:26:08 10° N daylight
02 Jun - 20:37:05 10° N 20:41:25 19° NE 20:45:50 10° E daylight
02 Jun - 22:19:17 10° NNW 22:25:35 82° ENE 22:31:59 10° SSE visible
03 Jun - 00:04:10 10° WNW 00:08:09 18° WSW 00:12:10 10° SW visible
03 Jun - 12:59:30 10° SSW 13:04:19 64° ESE 13:09:44 10° NE daylight
03 Jun - 14:44:09 10° W 14:48:06 22° NW 14:52:23 10° N daylight
03 Jun - 20:03:25 10° N 20:06:53 15° NE 20:10:24 10° ENE daylight
03 Jun - 21:45:11 10° NNW 21:51:23 61° ENE 21:57:41 10° SE visible
03 Jun - 23:29:14 10° NW 23:34:14 25° WSW 23:39:16 10° SSW visible
04 Jun - 12:25:43 10° S 12:30:18 42° ESE 12:35:24 10° NE daylight
04 Jun - 14:09:16 10° WSW 14:13:41 29° NW 14:18:31 10° NNE daylight
04 Jun - 19:30:03 10° N 19:32:16 12° NNE 19:34:31 10° NE daylight
04 Jun - 21:11:09 10° NNW 21:17:07 45° NE 21:23:12 10° SE visible
04 Jun - 22:54:38 10° NW 23:00:17 35° WSW 23:05:58 10° S visible
05 Jun - 11:52:11 10° SSE 11:56:21 28° ESE 12:00:53 10° NE daylight
05 Jun - 13:34:36 10° WSW 13:39:19 40° NW 13:44:35 10° NNE daylight
05 Jun - 20:37:10 10° NNW 20:42:48 34° NE 20:48:32 10° ESE daylight
05 Jun - 22:20:13 10° NW 22:26:16 50° WSW 22:32:21 10° S visible
06 Jun - 11:19:01 10° SSE 11:22:27 19° ESE 11:26:08 10° ENE daylight
06 Jun - 13:00:09 10° SW 13:05:03 56° NW 13:10:33 10° NNE daylight
06 Jun - 14:47:26 10° WNW 14:49:41 12° NNW 14:52:00 10° N daylight
06 Jun - 20:03:15 10° N 20:08:24 26° NE 20:13:39 10° E daylight
06 Jun - 21:45:56 10° NW 21:52:12 69° WSW 21:58:30 10° SSE visible
06 Jun - 23:33:10 10° W 23:34:24 11° W 23:35:38 10° WSW visible
07 Jun - 10:46:36 10° SE 10:48:37 12° E 10:50:43 10° ENE daylight
07 Jun - 12:25:53 10° SSW 12:30:50 81° WNW 12:36:26 10° NNE daylight
07 Jun - 14:11:51 10° WNW 14:15:07 16° NW 14:18:33 10° N daylight
07 Jun - 19:29:25 10° N 19:33:57 20° NE 19:38:33 10° E daylight
07 Jun - 21:11:44 10° NNW 21:18:04 87° ENE 21:24:27 10° SSE visible
07 Jun - 22:56:51 10° WNW 23:00:34 16° WSW 23:04:16 10° SW visible
